History for Miami, FL

Sunday, January 20, 2013 — View Current Conditions

Jump to Data:

Date:
Airport Code:
Recently Viewed Airport Codes: KMIA
Daily Summary
  Actual Average Record
Temperature
Mean Temperature 74°F 68°F  
Max Temperature 82°F 76°F 87°F (1947)
Min Temperature 65°F 60°F 31°F (1977)
Degree Days
Heating Degree Days 0 2  
Month to date heating degree days 4 40  
Since 1 July heating degree days 20 77  
Cooling Degree Days 9 5  
Month to date cooling degree days 191 100  
Year to date cooling degree days 191 100  
Growing Degree Days 23 (Base 50)    
Moisture
Dew Point 64°F    
Average Humidity 77    
Maximum Humidity 100    
Minimum Humidity 54    
Precipitation
Precipitation 0.00 in 0.05 in 2.26 in (1983)
Month to date precipitation 0.54 1.00  
Year to date precipitation 0.54 1.00  
Snow
Snow 0.00 in in in ()
Month to date snowfall 0.0  
Since 1 July snowfall 0.0  
Snow Depth 0.00 in    
Sea Level Pressure
Sea Level Pressure 30.09 in    
Wind
Wind Speed 2 mph (North)    
Max Wind Speed 9 mph    
Max Gust Speed 22 mph    
Visibility 7 miles    
Events Fog    
T = Trace of Precipitation, MM = Missing Value Source: NWS Daily Summary

Show full METARS

(help) - Comma Delimited File

Hourly Observations

Time(EST) Temperature Dew Point Humidity Sea Level Pressure Visibility Wind Direction Wind Speed Gust Speed Precipitation Events Conditions
12:53 AM 66.9°F 64.9°F 93% 30.11 in 10.0 miles NNW 5.8 mph - N/A   Scattered Clouds
1:04 AM 66.2°F 64.4°F 94% 30.11 in 2.0 miles NNW 3.5 mph - N/A   Mostly Cloudy
1:14 AM 66.2°F 64.4°F 94% 30.11 in 0.5 miles Calm Calm - N/A Fog Fog
1:43 AM 66.2°F 64.4°F 94% 30.11 in 0.2 miles Calm Calm - N/A Fog Fog
1:53 AM 66.0°F 64.9°F 96% 30.11 in 0.2 miles Calm Calm - N/A Fog Fog
2:53 AM 66.0°F 64.9°F 96% 30.09 in 0.2 miles Calm Calm - N/A Fog Fog
3:30 AM 66.2°F 64.4°F 94% 30.08 in 5.0 miles Variable 3.5 mph - N/A   Mostly Cloudy
3:53 AM 66.0°F 66.0°F 100% 30.08 in 6.0 miles Calm Calm - N/A   Mostly Cloudy
4:21 AM 66.2°F 64.4°F 94% 30.09 in 6.0 miles Calm Calm - N/A   Mostly Cloudy
4:53 AM 66.0°F 64.9°F 96% 30.09 in 6.0 miles Calm Calm - N/A   Mostly Cloudy
5:53 AM 66.0°F 64.9°F 96% 30.11 in 6.0 miles NW 4.6 mph - N/A   Mostly Cloudy
6:06 AM 66.2°F 64.4°F 94% 30.10 in 2.0 miles WNW 3.5 mph - N/A   Overcast
6:26 AM 66.2°F 64.4°F 94% 30.11 in 0.5 miles WNW 4.6 mph - N/A Fog Fog
6:53 AM 66.2°F 64.4°F 94% 30.11 in 4.0 miles NNW 3.5 mph - N/A   Overcast
7:53 AM 66.9°F 64.9°F 93% 30.13 in 4.0 miles NNW 3.5 mph - N/A   Scattered Clouds
8:53 AM 70.2°F 66.0°F 87% 30.16 in 5.0 miles Calm Calm - N/A   Scattered Clouds
9:53 AM 73.0°F 66.0°F 79% 30.16 in 10.0 miles Calm Calm - N/A   Scattered Clouds
10:53 AM 75.0°F 66.0°F 73% 30.15 in 10.0 miles Calm Calm - N/A   Scattered Clouds
11:53 AM 78.1°F 64.9°F 64% 30.11 in 10.0 miles Variable 3.5 mph - N/A   Partly Cloudy
12:53 PM 81.0°F 62.1°F 52% 30.06 in 10.0 miles Calm Calm - N/A   Partly Cloudy
1:53 PM 81.0°F 62.1°F 52% 30.04 in 10.0 miles Variable 3.5 mph - N/A   Scattered Clouds
2:53 PM 79.0°F 63.0°F 58% 30.03 in 10.0 miles ESE 5.8 mph - N/A   Mostly Cloudy
3:53 PM 78.8°F 62.6°F 57% 30.03 in 10.0 miles SE 6.9 mph - N/A   Mostly Cloudy
4:53 PM 75.9°F 63.0°F 64% 30.05 in 10.0 miles SE 6.9 mph - N/A   Mostly Cloudy
5:53 PM 75.0°F 64.0°F 69% 30.05 in 10.0 miles SE 5.8 mph - N/A   Mostly Cloudy
6:53 PM 73.9°F 64.0°F 71% 30.05 in 10.0 miles SE 3.5 mph - N/A   Mostly Cloudy
7:53 PM 73.0°F 64.0°F 73% 30.06 in 10.0 miles Calm Calm - N/A   Scattered Clouds
8:53 PM 72.0°F 63.0°F 73% 30.06 in 10.0 miles Calm Calm - N/A   Scattered Clouds
9:53 PM 72.0°F 63.0°F 73% 30.07 in 10.0 miles Calm Calm - N/A   Partly Cloudy
10:53 PM 72.0°F 64.0°F 76% 30.07 in 10.0 miles Calm Calm - N/A   Mostly Cloudy
11:53 PM 72.0°F 66.0°F 81% 30.06 in 10.0 miles Calm Calm - N/A   Mostly Cloudy